Weather History for Kaneohe MCBH, HI

Change the Weather History Date:

Monday, September 22, 2014

  Actual Average Record
Temperature  
Mean Temperature 80 °F -  
Max Temperature 84 °F 81 °F 86 °F (2003)
Min Temperature 73 °F 72 °F 46 °F (1998)
Cooling Degree Days 14    
Growing Degree Days 30 (Base 50)    
Moisture  
Dew Point 72 °F    
Average Humidity 79    
Maximum Humidity 92    
Minimum Humidity 66    
Precipitation  
Precipitation 0.00 in - - ()
Sea Level Pressure  
Sea Level Pressure 30.02 in    
Wind  
Wind Speed 7 mph (ENE)    
Max Wind Speed 13 mph    
Max Gust Speed 18 mph    
Visibility 9 miles    
Events      
Averages and records for this station are not official NWS values.
T = Trace of Precipitation, MM = Missing Value Source: NWS Daily Summary

Daily Weather History Graph

Daily Weather History Graph

Search for Another Location

Airport:

Trip Planner

Search our weather history database for the weather conditions in past years. The results will help you decide how hot, cold, wet, or windy it might be!

Date:

Astronomy

Sep. 22, 2014 Rise Set
Actual Time 6:19 AM HST 6:27 PM HST
Civil Twilight 5:57 AM HST 6:49 PM HST
Nautical Twilight 5:31 AM HST 7:15 PM HST
Astronomical Twilight 5:05 AM HST 7:41 PM HST
Moon 5:05 AM HST (9/22) 5:37 PM HST (9/22)
Length of Visible Light 12h 51m
Length of Day
12h 07m
Waning Crescent, 2% of the Moon is Illuminated
Sep 22
Waning Crescent
Sep 23
New
Oct 1
First Quarter
Oct 8
Full
Oct 15
Last Quarter

Hourly Weather History & Observations

Time (HST) Temp. Heat Index Dew Point Humidity Pressure Visibility Wind Dir Wind Speed Gust Speed Precip Events Conditions
12:57 AM 78.8 °F - 71.1 °F 77% 30.01 in 10.0 mi East 3.5 mph - N/A   Scattered Clouds
1:57 AM 78.8 °F - 72.0 °F 79% 30.00 in 10.0 mi Calm Calm - N/A   Scattered Clouds
2:57 AM 77.0 °F - 72.0 °F 84% 29.99 in 10.0 mi East 4.6 mph - N/A   Mostly Cloudy
3:57 AM 77.0 °F - 72.0 °F 84% 29.99 in 10.0 mi ENE 6.9 mph - N/A   Scattered Clouds
4:57 AM 77.0 °F - 72.0 °F 84% 29.99 in 10.0 mi East 4.6 mph - N/A   Partly Cloudy
5:57 AM 75.2 °F - 72.0 °F 90% 30.01 in 10.0 mi ENE 4.6 mph - N/A   Partly Cloudy
6:57 AM 75.2 °F - 72.0 °F 90% 30.02 in 10.0 mi East 4.6 mph - N/A   Scattered Clouds
7:05 AM - - - N/A% 30.03 in 6.2 mi Variable 6.9 mph - N/A   Mostly Cloudy
7:15 AM 77.0 °F - 71.6 °F 83% 30.04 in 6.2 mi East 9.2 mph - N/A   Scattered Clouds
7:57 AM 77.0 °F - 72.0 °F 84% 30.03 in 10.0 mi Variable 4.6 mph - N/A   Scattered Clouds
8:49 AM 80.6 °F 84.6 °F 71.6 °F 74% 30.05 in 6.2 mi ENE 9.2 mph - N/A   Mostly Cloudy
8:57 AM 80.6 °F 84.7 °F 72.0 °F 75% 30.04 in 10.0 mi NE 10.4 mph - N/A   Mostly Cloudy
9:57 AM 80.6 °F 85.2 °F 73.0 °F 78% 30.04 in 10.0 mi ENE 8.1 mph - N/A   Mostly Cloudy
10:57 AM 80.6 °F 85.2 °F 73.0 °F 78% 30.04 in 10.0 mi ENE 8.1 mph 16.1 mph N/A   Scattered Clouds
11:40 AM 80.6 °F 84.6 °F 71.6 °F 74% 30.05 in 6.2 mi ENE 10.4 mph - N/A   Mostly Cloudy
11:57 AM 80.6 °F 84.7 °F 72.0 °F 75% 30.04 in 10.0 mi NE 11.5 mph - N/A   Mostly Cloudy
12:57 PM 84.2 °F 90.6 °F 73.0 °F 69% 30.02 in 10.0 mi ENE 12.7 mph - N/A   Mostly Cloudy
1:45 PM 84.2 °F 89.6 °F 71.6 °F 66% 30.02 in 6.2 mi ENE 11.5 mph - N/A   Scattered Clouds
1:57 PM 84.2 °F 89.9 °F 72.0 °F 67% 30.00 in 10.0 mi ENE 10.4 mph - N/A   Partly Cloudy
2:57 PM 84.2 °F 89.9 °F 72.0 °F 67% 29.99 in 10.0 mi ENE 10.4 mph - N/A   Scattered Clouds
3:57 PM 84.2 °F 89.9 °F 72.0 °F 67% 29.99 in 10.0 mi ENE 10.4 mph - N/A   Scattered Clouds
4:57 PM 84.2 °F 89.9 °F 72.0 °F 67% 30.00 in 10.0 mi East 10.4 mph - N/A   Mostly Cloudy
5:57 PM 80.6 °F 84.7 °F 72.0 °F 75% 30.01 in 10.0 mi ENE 8.1 mph - N/A   Scattered Clouds
6:57 PM 75.2 °F - 71.1 °F 87% 30.02 in 10.0 mi ENE 6.9 mph - N/A   Partly Cloudy
7:57 PM 75.2 °F - 72.0 °F 90% 30.05 in 10.0 mi ENE 10.4 mph 17.3 mph N/A   Scattered Clouds
8:57 PM 75.2 °F - 71.1 °F 87% 30.06 in 10.0 mi ENE 10.4 mph 18.4 mph N/A   Clear
9:57 PM 75.2 °F - 70.0 °F 84% 30.07 in 10.0 mi ENE 11.5 mph 17.3 mph N/A   Partly Cloudy
10:57 PM 75.2 °F - 70.0 °F 84% 30.07 in 10.0 mi ENE 6.9 mph - N/A   Partly Cloudy
11:57 PM 73.4 °F - 71.1 °F 92% 30.05 in 10.0 mi East 5.8 mph - N/A   Partly Cloudy